Retour au catalogue

MSX

ActifMilitaireSSO
NORAD 23851·PAYLOAD·🇺🇸 United States

Lancé Apr 24, 1996 depuis Vandenberg Space Force Base

Loading…

Prochains Passages (prochaines 24 heures)

TLE

FraisSource: Space-Track

Époque: Sep 14, 2026, 05:52 UTC

1 23851U 96024A   26257.24474244  .00000208  00000-0  17592-3 0  9990
2 23851  99.0450 193.0703 0007548   2.5182 357.6018 13.98394154550796

Suivez MSX en temps réel avec AllMySat

Download on the App Store